Starlink 30823

operational
NORAD ID: 58248 Int'l Des: 2023-171 Owner: SPXS Country: US Constellation: starlink
LEOCIRCULAR

Starlink 30823について

説明を読み込み中...

リアルタイム位置

3D地球を読み込み中...

次回通過

高度履歴

Altitude vs Time

uPlot chart will show altitude changes over time

軌道要素

1 58248U 23171U 25304.16268129 .00000185 00000-0 28775-4 0 9997
2 58248 43.0056 269.6032 0001181 268.9156 91.1551 15.02535731110245
Epoch: Oct 31, 2025 • Age: 38 hours

現在のステータス

高度 570.0 km
速度 7.58 km/s
衛星直下点 -39.07°S, 108.69°W
打ち上げ日 Nov 8, 2023
運用期間 1.9 years
タイプ internet

技術仕様

分類 Payload
質量 730.00 kg
乾燥質量 700.00 kg
総質量 730.00 kg
長さ 0.30 m
直径 4.10 m
スパン 29.00 m
形状 Box + pan
製造者 SPXS
バスタイプ Starlink V2M
フェーズステータス In Orbit
所有者/国 SPXS/US

大規模コンステレーション

Loading constellations...